Doylestown, PA

2:09 AM EST on December 07, 2019 (GMT -0500)
Doylestown

Weather History for KDYL - October, 2019

Change the Weather History Date:

Tuesday, October 22, 2019

  Actual Average (KTTN) Record (KTTN)
Temperature  
Mean Temperature 59 °F -  
Max Temperature 63 °F 59 °F 83 °F (1979)
Min Temperature 55 °F 41 °F 27 °F (1940)
Degree Days  
Heating Degree Days 6    
Growing Degree Days 9 (Base 50)    
Moisture  
Dew Point 57 °F    
Average Humidity 90    
Maximum Humidity 93    
Minimum Humidity 80    
Precipitation  
Precipitation 0.71 in - - ()
Sea Level Pressure  
Sea Level Pressure 29.91 in    
Wind  
Wind Speed 1 mph (WNW)    
Max Wind Speed 6 mph    
Max Gust Speed -    
Visibility 6 miles    
Events Rain    
Averages and records for this station are not official NWS values.
T = Trace of Precipitation, MM = Missing Value Source: NWS Daily Summary

Daily Weather History Graph

Daily Weather History Graph

Search for Another Location

Airport or City:

Astronomy

Oct. 22, 2019 Rise Set
Actual Time 7:18 AM EDT 6:10 PM EDT
Civil Twilight 6:50 AM EDT 6:38 PM EDT
Nautical Twilight 6:19 AM EDT 7:10 PM EDT
Astronomical Twilight 5:47 AM EDT 7:41 PM EDT
Moon 12:24 AM EDT (10/22) 3:19 PM EDT (10/22)
Length of Visible Light 11h 47m
Length of Day
10h 52m
Last Quarter, 37% of the Moon is Illuminated
Oct 22
Last Quarter
Oct 27
New
Nov 4
First Quarter
Nov 12
Full
Nov 19
Last Quarter

Hourly Weather History & Observations

Time (EDT) Temp. Dew Point Humidity Pressure Visibility Wind Dir Wind Speed Gust Speed Precip Events Conditions
12:23 AM 55.9 °F 50.0 °F 80% 30.10 in 10.0 mi Calm Calm - N/A   Overcast
12:54 AM 55.9 °F 51.1 °F 84% 30.09 in 10.0 mi Calm Calm - N/A   Overcast
1:54 AM 57.0 °F 52.0 °F 83% 30.08 in 10.0 mi Calm Calm - N/A   Overcast
2:15 AM 57.0 °F 52.0 °F 83% 30.08 in 10.0 mi Calm Calm - N/A   Overcast
2:54 AM 57.0 °F 52.0 °F 83% 30.09 in 10.0 mi Calm Calm - N/A   Overcast
3:54 AM 55.9 °F 52.0 °F 87% 30.06 in 10.0 mi Calm Calm - N/A   Overcast
4:54 AM 55.0 °F 50.0 °F 83% 30.05 in 10.0 mi Calm Calm - N/A   Overcast
5:54 AM 55.0 °F 50.0 °F 83% 30.05 in 10.0 mi Calm Calm - N/A   Overcast
6:54 AM 55.0 °F 51.1 °F 86% 30.04 in 10.0 mi Calm Calm - N/A   Overcast
7:54 AM 55.0 °F 50.0 °F 83% 30.03 in - Variable 3.5 mph - N/A   Unknown
8:23 AM 55.9 °F 51.1 °F 84% 30.04 in 10.0 mi Calm Calm - N/A   Overcast
8:55 AM 55.0 °F 52.0 °F 89% 30.05 in - Calm Calm - N/A   Unknown
9:23 AM 55.9 °F 53.1 °F 90% 30.04 in 3.0 mi Calm Calm - N/A   Overcast
9:54 AM 55.9 °F 54.0 °F 93% 30.04 in 2.5 mi Calm Calm - 0.00 in Rain Light Rain
10:01 AM 55.9 °F 54.0 °F 93% 30.03 in 4.0 mi Calm Calm - 0.00 in   Overcast
10:54 AM 57.0 °F 55.0 °F 93% 30.02 in 4.0 mi Calm Calm - 0.00 in   Mist
11:08 AM 57.0 °F 55.0 °F 93% 30.01 in 4.0 mi Calm Calm - N/A   Overcast
11:54 AM 57.9 °F 55.9 °F 93% 30.00 in 3.0 mi Calm Calm - N/A   Overcast
1:28 PM 60.1 °F 57.9 °F 93% 29.91 in 3.0 mi Variable 3.5 mph - N/A   Overcast
1:54 PM 61.0 °F 59.0 °F 93% 29.90 in 3.0 mi Variable 3.5 mph - N/A   Overcast
2:05 PM 61.0 °F 59.0 °F 93% 29.88 in 2.5 mi Calm Calm - 0.00 in Rain Light Rain
2:16 PM 61.0 °F 59.0 °F 93% 29.88 in 3.0 mi Variable 4.6 mph - 0.00 in   Overcast
2:51 PM 62.6 °F 59.0 °F 88% 29.87 in 2.5 mi Variable 3.5 mph - 0.01 in Rain Light Rain
2:54 PM 62.1 °F 59.0 °F 90% 29.86 in 3.0 mi Calm Calm - 0.02 in Rain Light Rain
3:54 PM 62.1 °F 60.1 °F 93% 29.86 in 4.0 mi North - - 0.02 in   Overcast
4:54 PM 62.1 °F 60.1 °F 93% 29.84 in 3.0 mi SE 4.6 mph - 0.02 in Rain Light Rain
5:09 PM 62.1 °F 60.1 °F 93% 29.84 in - Variable 3.5 mph - 0.01 in Rain Rain
5:54 PM 62.1 °F 60.1 °F 93% 29.83 in - Variable 3.5 mph - 0.11 in Rain Heavy Rain
6:22 PM 62.1 °F 60.1 °F 93% 29.82 in 9.0 mi North - - 0.10 in Rain Light Rain
6:54 PM 62.1 °F 60.1 °F 93% 29.82 in 8.0 mi Calm Calm - 0.20 in Rain Rain
7:09 PM 62.1 °F 60.1 °F 93% 29.82 in 10.0 mi Variable 3.5 mph - 0.05 in Rain Light Rain
7:40 PM 63.0 °F 60.1 °F 90% 29.81 in 5.0 mi Variable 4.6 mph - 0.12 in Rain Rain
7:54 PM 63.0 °F 60.1 °F 90% 29.81 in 10.0 mi Calm Calm - 0.15 in Rain Light Rain
8:05 PM 63.0 °F 60.1 °F 90% 29.81 in 6.0 mi Variable 4.6 mph - 0.01 in Rain Light Rain
8:35 PM 63.0 °F 61.0 °F 93% 29.80 in 5.0 mi Calm Calm - 0.05 in Rain Rain
8:54 PM 63.0 °F 61.0 °F 93% 29.80 in 7.0 mi Calm Calm - 0.08 in Rain Light Rain
9:11 PM 63.0 °F 61.0 °F 93% 29.80 in 7.0 mi SSE 3.5 mph - 0.02 in Rain Light Rain
9:33 PM 63.0 °F 61.0 °F 93% 29.80 in 6.0 mi Calm Calm - 0.06 in Rain Light Rain
9:42 PM 63.0 °F 61.0 °F 93% 29.80 in 7.0 mi Calm Calm - 0.07 in Rain Light Rain
9:54 PM 63.0 °F 61.0 °F 93% 29.80 in 10.0 mi Calm Calm - 0.08 in Rain Light Rain
10:26 PM 63.0 °F 61.0 °F 93% 29.80 in 3.0 mi West 3.5 mph - 0.00 in   Overcast
10:30 PM 63.0 °F 61.0 °F 93% 29.80 in 2.5 mi Calm Calm - 0.00 in   Overcast
10:45 PM 63.0 °F 61.0 °F 93% 29.80 in 3.0 mi WNW 3.5 mph - 0.00 in   Overcast
10:54 PM 63.0 °F 60.1 °F 90% 29.81 in 4.0 mi Variable 4.6 mph - 0.01 in   Overcast
11:08 PM 62.1 °F 60.1 °F 93% 29.80 in 10.0 mi NW 5.8 mph - N/A   Overcast
11:18 PM 62.1 °F 59.0 °F 90% 29.80 in 5.0 mi North 3.5 mph - 0.01 in Rain Light Rain
11:26 PM 61.0 °F 59.0 °F 93% 29.80 in 9.0 mi Calm Calm - 0.01 in Rain Light Rain
11:54 PM 61.0 °F 59.0 °F 93% 29.80 in 10.0 mi West 3.5 mph - 0.02 in   Overcast